Flag for Germany Weather past 2 weeks in Flensburg, Schleswig-Holstein, Germany

Now
54 °F

Scattered clouds.


Feels Like: 52 °F
Forecast: 46 / 55 °F
Wind: 7 mph from South

Location: Soenderborg Lufthavn

Current Time: May 29, 2015 at 11:25:10 AM

Latest Report: May 29, 2015 at 9:50 AM


Visibility: N/A

Pressure: 29.80 "Hg

Humidity: 82%

Dew point: 48 °F

Location of FlensburgLocation

Historic Weather in Flensburg — Graph

°F

Flensburg temperature yesterday

Maximum temperature yesterday: 59 °F (at 3:50 PM)
Minimum temperature yesterday: 46 °F (at 11:00 PM)
Average temperature yesterday: 53 °F

Past Weeks' High & Low Weather Summary

 TemperatureHumidityPressure
High63 °F (May 22, 1:50 PM)100% (May 18, 8:50 PM)30.24 "Hg (May 18, 8:50 PM)
Low43 °F (May 20, 5:20 AM)45% (May 22, 5:50 PM)29.50 "Hg (May 19, 6:20 AM)
Average52 °F74%29.93 "Hg
* Reported May 14 9:50 AM — May 29 9:50 AM, Flensburg, Weather by CustomWeather, © 2015

Note: Actual official high and low records may vary slightly from our data, if they occured in-between our weather recording intervals... More about our weather records

Advertising

Flensburg weather history for previous 24 hours

 ConditionsComfort  
Time TempWeatherWind HumidityBarometerVisibility
9:50 AM
Fri, May 29
54 °FScattered clouds.7 mph82%29.80 "HgN/A
9:20 AM52 °FScattered clouds.8 mph77%29.80 "HgN/A
8:51 AM54 °FScattered clouds.9 mph77%29.80 "HgN/A
8:20 AM52 °FPassing clouds.8 mph82%29.80 "HgN/A
7:50 AM50 °FPassing clouds.8 mph82%29.80 "HgN/A
6:50 AM48 °FPassing clouds.6 mph87%29.80 "HgN/A
6:26 AM46 °FPassing clouds.6 mph87%29.80 "HgN/A
6:06 AM46 °FPassing clouds.6 mph93%29.80 "HgN/A
12:50 AM45 °FClear.5 mph93%29.83 "Hg10 mi
11:50 PM
Thu, May 28
46 °FPassing clouds.5 mph87%29.83 "HgN/A
11:00 PM46 °FPassing clouds.5 mph87%29.83 "HgN/A
9:50 PM48 °FScattered clouds.6 mph76%29.80 "HgN/A
8:51 PM50 °FScattered clouds.7 mph71%29.80 "HgN/A
7:51 PM52 °FScattered clouds.12 mph67%29.77 "HgN/A
6:50 PM54 °FScattered clouds.13 mph63%29.77 "HgN/A
5:50 PM57 °FPartly sunny.16 mph59%29.74 "HgN/A
4:50 PM57 °FPartly sunny.15 mph59%29.74 "HgN/A
3:50 PM59 °FPartly sunny.14 mph59%29.74 "HgN/A
2:56 PM57 °FScattered clouds.17 mph55%29.74 "HgN/A
1:50 PM57 °FSprinkles. Scattered clouds.16 mph67%29.74 "HgN/A
1:20 PM55 °FSprinkles. Scattered clouds.15 mph77%29.74 "HgN/A
12:20 PM54 °FSprinkles. Broken clouds.13 mph88%29.74 "Hg4 mi
11:20 AM54 °FSprinkles. Broken clouds.9 mph88%29.74 "Hg4 mi
Weather by CustomWeather, © 2015

See weather overviewHow to use our weather pages